Weather History for Nadi, Fiji

Change the Weather History Date:

Tuesday, January 21, 2014

  Actual Average Record
Temperature  
Mean Temperature 82 °F -  
Max Temperature 89 °F 86 °F 91 °F (2007)
Min Temperature 75 °F 73 °F 68 °F (2004)
Cooling Degree Days 17    
Growing Degree Days 32 (Base 50)    
Moisture  
Dew Point 76 °F    
Average Humidity 84    
Maximum Humidity 100    
Minimum Humidity 57    
Precipitation  
Precipitation 0.43 in 0.40 in - ()
Sea Level Pressure  
Sea Level Pressure 29.78 in    
Wind  
Wind Speed 5 mph ()    
Max Wind Speed 14 mph    
Max Gust Speed -    
Visibility 6.8 miles    
Events Rain , Thunderstorm    
Averages and records for this station are not official NWS values.
T = Trace of Precipitation, MM = Missing Value Source: Averaged Metar Reports

Daily Weather History Graph

Daily Weather History Graph

Search for Another Location

Airport:

Trip Planner

Search our weather history database for the weather conditions in past years. The results will help you decide how hot, cold, wet, or windy it might be!

Date:

Astronomy

Jan. 21, 2014 Rise Set
Actual Time 5:50 AM FJT 6:51 PM FJT
Civil Twilight 5:27 AM FJT 7:15 PM FJT
Nautical Twilight 4:59 AM FJT 7:42 PM FJT
Astronomical Twilight 4:31 AM FJT 8:11 PM FJT
Moon 9:55 PM FJT (1/21) 9:35 AM FJT (1/21)
Length of Visible Light 13h 47m
Length of Day
13h 01m
Waning Gibbous, 80% of the Moon is Illuminated
Jan 21
Waning Gibbous
Jan 24
Last Quarter
Jan 31
New
Feb 7
First Quarter
Feb 15
Full

Hourly Weather History & Observations

Time (FJT) Temp. Heat Index Dew Point Humidity Pressure Visibility Wind Dir Wind Speed Gust Speed Precip Events Conditions
12:00 AM 76 °F - 75 °F 97% 29.83 in 12 mi East 4.6 mph - -   Partly Cloudy
12:00 AM 75.2 °F - 75.2 °F 100% 29.83 in 6.2 mi East 4.6 mph - N/A   Mostly Cloudy
1:00 AM 75.2 °F - 75.2 °F 100% 29.80 in 6.2 mi Calm Calm - N/A   Mostly Cloudy
2:00 AM 75.2 °F - 73.4 °F 94% 29.77 in 6.2 mi ENE 5.8 mph - N/A   Mostly Cloudy
3:00 AM 75 °F - 74 °F 96% 29.78 in 12 mi ESE 4.6 mph - -   Partly Cloudy
3:00 AM 75.2 °F - 73.4 °F 94% 29.77 in 6.2 mi ESE 4.6 mph - N/A   Mostly Cloudy
4:00 AM 75.2 °F - 73.4 °F 94% 29.74 in 6.2 mi NE 5.8 mph - N/A   Mostly Cloudy
5:00 AM 75.2 °F - 73.4 °F 94% 29.77 in 6.2 mi East 5.8 mph - N/A   Mostly Cloudy
6:00 AM 75 °F - 73 °F 93% 29.79 in 31 mi ENE 4.6 mph - -   Partly Cloudy
6:00 AM 75.2 °F - 73.4 °F 94% 29.77 in 6.2 mi ENE 4.6 mph - N/A   Mostly Cloudy
7:00 AM 78.8 °F - 73.4 °F 83% 29.80 in 6.2 mi East 4.6 mph - N/A   Mostly Cloudy
8:00 AM 82.4 °F 89.5 °F 75.2 °F 79% 29.80 in 6.2 mi East 4.6 mph - N/A   Scattered Clouds
9:00 AM 86 °F - 75 °F 62% 29.82 in 31 mi Calm Calm - -   Partly Cloudy
9:00 AM 86.0 °F 95.1 °F 75.2 °F 70% 29.80 in 6.2 mi Calm Calm - N/A   Scattered Clouds
10:00 AM 86.0 °F 95.1 °F 75.2 °F 70% 29.80 in 6.2 mi WNW 6.9 mph - N/A   Scattered Clouds
11:00 AM 87.8 °F 97.6 °F 75.2 °F 66% 29.80 in 6.2 mi West 6.9 mph - N/A   Scattered Clouds
12:00 PM 88 °F - 78 °F 65% 29.79 in 31 mi West 10.4 mph - -   Partly Cloudy
12:00 PM 87.8 °F 99.7 °F 77.0 °F 70% 29.77 in 6.2 mi West 10.4 mph - N/A   Scattered Clouds
1:00 PM 87.8 °F 99.7 °F 77.0 °F 70% 29.77 in 6.2 mi West 11.5 mph - N/A   Scattered Clouds
2:00 PM 87.8 °F 102.5 °F 78.8 °F 75% 29.74 in 6.2 mi West 10.4 mph - N/A   Scattered Clouds
3:00 PM 89 °F - 76 °F 57% 29.74 in 31 mi West 13.8 mph - -   Partly Cloudy
3:00 PM 89.6 °F 99.8 °F 75.2 °F 62% 29.74 in 6.2 mi West 13.8 mph - N/A   Scattered Clouds
3:05 PM 89.6 °F 99.8 °F 75.2 °F 62% 29.71 in 6.2 mi West 13.8 mph - N/A Thunderstorm Thunderstorm
4:00 PM 86.0 °F 96.9 °F 77.0 °F 74% 29.71 in 3.1 mi North 10.4 mph - N/A Rain , Thunderstorm Thunderstorms and Rain
4:30 PM 80.6 °F 87.1 °F 77.0 °F 89% 29.74 in 5.0 mi WNW 11.5 mph - N/A Rain , Thunderstorm Light Thunderstorms and Rain
5:00 PM 80.6 °F 88.1 °F 78.8 °F 94% 29.74 in 6.2 mi WNW 4.6 mph - N/A Thunderstorm Thunderstorm
6:00 PM 80 °F - 79 °F 95% 29.77 in 12 mi 2.3 mph - - Thunderstorm Light Thunderstorm
6:00 PM 80.6 °F 88.1 °F 78.8 °F 94% 29.74 in 6.2 mi Variable 2.3 mph - N/A Rain Light Rain Showers
7:00 PM 80.6 °F 88.1 °F 78.8 °F 94% 29.77 in 6.2 mi East 4.6 mph - N/A Rain Light Rain Showers
8:00 PM 78.8 °F - 77.0 °F 94% 29.80 in 6.2 mi East 4.6 mph - N/A   Scattered Clouds
9:00 PM 78 °F - 77 °F 96% 29.82 in 12 mi ESE 4.6 mph - -   Partly Cloudy
9:00 PM 78.8 °F - 77.0 °F 94% 29.80 in 6.2 mi ESE 4.6 mph - N/A   Scattered Clouds
10:00 PM 77.0 °F - 77.0 °F 100% 29.83 in 6.2 mi East 5.8 mph - N/A   Scattered Clouds
11:00 PM 77.0 °F - 77.0 °F 100% 29.83 in 6.2 mi Variable 2.3 mph - N/A   Scattered Clouds